Regional Weather Roundup
Issued by NWS

Home | Current Version | Previous Version | Text Only | Print | Product List | Glossary On
Versions: 1 2 3 4 5 6 7 8 9 10 11 12 13 14 15 16 17 18 19 20 21 22 23 24 25 26 27 28 29 30 31 32 33 34 35 36 37 38 39 40 41 42 43 44 45 46 47 48 49 50
000
ASUS45 KCYS 021610
RWRWY

WYOMING REGIONAL WEATHER ROUNDUP
NATIONAL WEATHER SERVICE CHEYENNE WY
1000 AM MDT THU OCT 02 2014

NOTE:  "FAIR" INDICATES FEW OR NO CLOUDS BELOW 12,000 FEET
WITH NO SIGNIFICANT WEATHER AND/OR OBSTRUCTIONS TO VISIBILITY.

WYZ001-021700-
YELLOWSTONE NATIONAL PARK

CITY           SKY/WX    TMP DP  RH WIND       PRES   REMARKS
LK YELLOWSTONE   N/A     34  27  75 VRB7      30.20R WCI  28
W YELLOWSTONE  NOT AVBL

$$
WYZ002>013-054>058-071-098>099-021700-
NORTHERN WYOMING

CITY           SKY/WX    TMP DP  RH WIND       PRES   REMARKS
JACKSON        SUNNY     45  30  57 S14G20    30.22R
CODY           MOSUNNY   52  28  40 NW12      30.04S
GREYBULL       MOSUNNY   47  38  71 SE6       30.05R
WORLAND        MOSUNNY   48  36  63 S7        30.05R
SHERIDAN       MOSUNNY   50  34  54 CALM      30.03R
BUFFALO        SUNNY     48  30  49 NW6       30.05R
GILLETTE       SUNNY     49  35  58 W8        30.03R
HULETT         FAIR      48  36  61 SW8       30.03
NEWCASTLE      FAIR      46  37  71 SE7       30.04

$$
WYZ014>020-022>026-101>103-021700-
CENTRAL WYOMING

CITY           SKY/WX    TMP DP  RH WIND       PRES   REMARKS
BIG PINEY      MOSUNNY   38  29  70 S5        30.24S WCI  34
PINEDALE       MOSUNNY   37  28  70 NW3       30.24S
DUBOIS         FAIR      43  21  42 NW22G35   30.10R
LANDER         MOSUNNY   40  33  76 SE6       30.10F
RIVERTON       MOSUNNY   40  28  62 SW7       30.11S
CASPER         SUNNY     46  34  62 SW22G30   30.09F
DOUGLAS        NOT AVBL

$$
WYZ021-027>030-104>119-021700-
SOUTHERN WYOMING

CITY           SKY/WX    TMP DP  RH WIND       PRES   REMARKS
EVANSTON       MOSUNNY   38  31  76 SW13      30.29F WCI  30
KEMMERER       MOSUNNY   37  32  81 W7        30.29R WCI  32
FORT BRIDGER   FAIR      42  32  66 W18G25    30.30R
ROCK SPRINGS   MOSUNNY   41  29  62 SW20      30.25S
DIXON          FAIR      42  33  72 SW12      30.31S
RAWLINS        SUNNY     42  28  57 W29G38    30.18S
SARATOGA       FAIR      41  32  70 SW14G22   30.25R
LARAMIE        SUNNY     42  27  55 W22G29    30.16S
CHEYENNE       SUNNY     47  29  49 NW7       30.13F
TORRINGTON     SUNNY     50  40  68 W7        30.07F
PINE BLUFFS    FAIR      50  32  50 NW20G28   30.12S

$$


USA.gov is the U.S. government's official web portal to all federal, state and local government web resources and services.